{"data":{"norad_id":65092,"epoch":"2026-09-20T05:04:43.122144Z","epoch_age_seconds":145108,"freshness":"FRESH","line1":"1 65092U 25167Q   26263.21161021  .00013153  00000+0  43452-3 0  9999","line2":"2 65092  53.1594 203.0050 0001857  85.7770 274.3443 15.31724423 63262","mean_motion":15.31724423,"eccentricity":0.0001857,"inclination_deg":53.1594,"raan_deg":203.005,"arg_perigee_deg":85.777,"mean_anomaly_deg":274.3443,"bstar":0.00043452,"rev_number":6326,"period_min":94.011688942039,"perigee_km":469.39536956234,"apogee_km":471.93901543943,"semimajor_km":6848.8041925009,"source":"CELESTRAK","updated_at":"2026-09-21T09:00:35.523830Z"}}